GONETS-M 22 (47229 NORAD) Tracking and Keplerian Element Data

This shows tracking and keplerian element data for the satellite.

Feedback or suggestion? Click here.




ElementValue
Catalog47229
NameGONETS-M 22
Epoch Orbit545
Epoch Day16.05014053
Epoch Year2021
RAAN91.8959
Inclination82.5058
Eccentricity0.0022577
Argument of Perigee169.7252
Mean Anonmoly190.4169
Mean Motion12.42909346
Decay Rate0.00020019
L11 47229U 20091C 21016.05014053 .00020019 00000-0 14407+0 0 9991
L22 47229 82.5058 91.8959 0022577 169.7252 190.4169 12.42909346 5454

Live tracking and technical data element details for GONETS-M 22 (NORAD 47229). GONETS-M 22 can be tracked NOW for your location showing map with azimuth and elevation plus other details from your city location.

Track the satellite on the map from your city or location and see movement details for azimuth, elevation, latitude, longitude, range, height, and movement on the map or in text.







IsCatalogInMostPopularTable: catalog: 47229, numindb: 21
Update: records affected: 1



GetName: 47229 GONETS-M 22

Hit Count: updated at: Sun, 17 Jan 2021 09:59:34 GMT